South Lake Tahoe, CA

12:22 AM PST on November 23, 2017 (GMT -0800)
Lake Tahoe

Weather History for KTVL - March, 2011

Change the Weather History Date:

Thursday, March 10, 2011

  Actual Average Record
Temperature  
Mean Temperature 38 °F 35 °F  
Max Temperature 50 °F 48 °F 64 °F (2015)
Min Temperature 26 °F 22 °F -2 °F (2002)
Degree Days  
Heating Degree Days 27 30  
Month to date heating degree days 303 312  
Since 1 July heating degree days 5141 5549  
Cooling Degree Days 0 0  
Month to date cooling degree days 0 0  
Year to date cooling degree days 0 0  
Moisture  
Dew Point 29 °F    
Average Humidity 54    
Maximum Humidity 75    
Minimum Humidity 33    
Precipitation  
Precipitation 0.12 in - 1.15 in (1954)
Month to date precipitation 1.34  
Year to date precipitation 3.70  
Snow  
Snow T in - - ()
Month to date snowfall 3.0  
Snow Depth 7.00 in    
Sea Level Pressure  
Sea Level Pressure 30.10 in    
Wind  
Wind Speed 15 mph (SSW)    
Max Wind Speed 35 mph    
Max Gust Speed 52 mph    
Visibility 8 miles    
Events Rain , Snow    
T = Trace of Precipitation, MM = Missing Value Source: NWS Daily Summary

Daily Weather History Graph

Daily Weather History Graph

Search for Another Location

Airport or City:

Trip Planner

Search our weather history database for the weather conditions in past years. The results will help you decide how hot, cold, wet, or windy it might be!

Date:

Astronomy

Mar. 10, 2011 Rise Set
Actual Time 6:19 AM PST 6:01 PM PST
Civil Twilight 5:52 AM PST 6:28 PM PST
Nautical Twilight 5:21 AM PST 6:59 PM PST
Astronomical Twilight 4:50 AM PST 7:30 PM PST
Moon 8:55 AM PST (3/10) 11:58 PM PST (3/10)
Length of Visible Light 12h 35m
Length of Day
11h 42m
Waxing Crescent, 29% of the Moon is Illuminated
Mar 10
Waxing Crescent
Mar 12
First Quarter
Mar 19
Full
Mar 26
Last Quarter
Apr 3
New

Hourly Weather History & Observations

Time (PST) Temp. Windchill Dew Point Humidity Pressure Visibility Wind Dir Wind Speed Gust Speed Precip Events Conditions
12:53 AM 30.0 °F - 17.1 °F 59% 30.19 in 10.0 mi Calm Calm - N/A   Clear
1:53 AM 43.0 °F 36.8 °F 17.1 °F 35% 30.16 in 10.0 mi South 11.5 mph 26.5 mph N/A   Scattered Clouds
2:53 AM 44.6 °F 41.4 °F 21.2 °F 39% 30.22 in 10.0 mi Variable 5.8 mph 19.6 mph N/A   Clear
3:53 AM 44.1 °F - 24.1 °F 45% 30.10 in 10.0 mi Calm Calm - N/A   Clear
4:53 AM 42.1 °F - 24.1 °F 49% 30.11 in 10.0 mi Calm Calm - N/A   Clear
5:53 AM 44.1 °F 37.7 °F 25.0 °F 47% 30.08 in 10.0 mi SSE 12.7 mph 19.6 mph N/A   Clear
6:53 AM 46.0 °F 37.2 °F 26.1 °F 46% 30.07 in 10.0 mi South 26.5 mph 41.4 mph N/A   Clear
7:53 AM 48.0 °F - 26.1 °F 42% 30.07 in 10.0 mi SSW 23.0 mph 41.4 mph N/A   Clear
8:53 AM 50.0 °F - 23.0 °F 35% 30.08 in 10.0 mi SSW 29.9 mph 41.4 mph N/A   Partly Cloudy
9:53 AM 48.9 °F - 25.0 °F 39% 30.11 in 10.0 mi South 19.6 mph 36.8 mph N/A   Scattered Clouds
10:53 AM 48.0 °F - 27.0 °F 44% 30.12 in 10.0 mi SSW 12.7 mph 29.9 mph N/A   Mostly Cloudy
11:53 AM 46.9 °F - 26.1 °F 44% 30.12 in 10.0 mi SSW 19.6 mph 34.5 mph N/A   Partly Cloudy
12:53 PM 48.0 °F - 23.0 °F 37% 30.06 in 10.0 mi SSW 21.9 mph 38.0 mph N/A   Overcast
1:53 PM 46.9 °F - 27.0 °F 46% 29.99 in 10.0 mi SSW 23.0 mph 36.8 mph N/A   Mostly Cloudy
2:37 PM 41.0 °F 32.8 °F 32.0 °F 70% 30.12 in 3.0 mi SSW 16.1 mph 42.6 mph 0.01 in Rain Light Rain
2:53 PM 39.0 °F 31.0 °F 33.1 °F 79% 30.07 in 1.8 mi SSW 13.8 mph 29.9 mph 0.03 in Rain Rain
3:00 PM 39.2 °F 31.2 °F 33.8 °F 81% 30.14 in 1.8 mi SW 13.8 mph 24.2 mph 0.01 in Rain Rain
3:07 PM 37.4 °F 30.3 °F 33.8 °F 87% 30.14 in 2.5 mi SSW 10.4 mph 23.0 mph 0.01 in Rain Light Rain
3:15 PM 39.2 °F 31.2 °F 33.8 °F 81% 30.14 in 4.0 mi SSW 13.8 mph 19.6 mph 0.02 in Rain Light Rain
3:24 PM 37.4 °F 27.2 °F 33.8 °F 87% 30.15 in 1.8 mi SSW 19.6 mph 25.3 mph 0.03 in Snow Light Snow
3:41 PM 37.4 °F 30.3 °F 33.8 °F 87% 30.16 in 2.0 mi SSW 10.4 mph 21.9 mph 0.06 in Snow Light Snow
3:53 PM 37.0 °F 33.3 °F 33.1 °F 86% 30.10 in 2.0 mi Variable 4.6 mph 16.1 mph 0.07 in Snow Light Snow
4:20 PM 37.4 °F 29.8 °F 33.8 °F 87% 30.13 in 4.0 mi SSW 11.5 mph 17.3 mph 0.01 in Rain Light Rain
4:27 PM 39.2 °F 31.2 °F 33.8 °F 81% 30.13 in 10.0 mi South 13.8 mph 21.9 mph 0.01 in   Overcast
4:53 PM 41.0 °F 33.1 °F 33.1 °F 73% 30.08 in 9.0 mi SSW 15.0 mph 26.5 mph 0.01 in Rain Light Rain
5:08 PM 39.2 °F 30.5 °F 33.8 °F 81% 30.13 in 4.0 mi SSW 16.1 mph 28.8 mph 0.01 in Rain Light Rain
5:18 PM 39.2 °F 30.8 °F 33.8 °F 81% 30.12 in 8.0 mi South 15.0 mph 25.3 mph 0.01 in Rain Light Rain
5:32 PM 41.0 °F 32.2 °F 33.8 °F 76% 30.12 in 10.0 mi SSW 18.4 mph 32.2 mph 0.01 in   Mostly Cloudy
5:53 PM 41.0 °F 31.4 °F 32.0 °F 70% 30.11 in 10.0 mi SSW 21.9 mph 35.7 mph N/A   Partly Cloudy
6:29 PM 39.2 °F 29.6 °F 32.0 °F 75% 30.11 in 10.0 mi SSW 19.6 mph 34.5 mph 0.00 in Rain Light Rain
6:53 PM 41.0 °F 31.9 °F 32.0 °F 70% 30.04 in 10.0 mi SSW 19.6 mph 39.1 mph 0.00 in Rain Light Rain
7:04 PM 41.0 °F 31.1 °F 32.0 °F 70% 30.11 in 10.0 mi South 23.0 mph 33.4 mph 0.00 in Rain Light Rain
7:53 PM 42.1 °F 33.9 °F 30.9 °F 65% 30.02 in 10.0 mi South 17.3 mph 31.1 mph 0.00 in   Partly Cloudy
8:53 PM 41.0 °F 35.2 °F 32.0 °F 70% 30.04 in 10.0 mi SSE 9.2 mph - N/A   Scattered Clouds
9:53 PM 42.1 °F 34.2 °F 32.0 °F 67% 30.05 in 10.0 mi South 16.1 mph 21.9 mph N/A   Overcast
10:53 PM 42.1 °F 35.7 °F 32.0 °F 67% 30.04 in 10.0 mi South 11.5 mph 25.3 mph N/A   Mostly Cloudy
11:53 PM 42.1 °F 35.2 °F 30.0 °F 62% 30.02 in 10.0 mi South 12.7 mph 17.3 mph N/A   Partly Cloudy